Location: Presov
(49.0000°N, 21.2500°E)
Time: 15:59:42
(UTC+02:00)

Vanguard 3 - Visible Passes

Search period start: 23 April 2021 00:00
Search period end: 03 May 2021 00:00
Orbit: 508 x 3262 km, 33.3° (Epoch: 23 April)

Date Brightness Start Highest point End Pass type
(mag) Time Alt. Az. Time Alt. Az. Time Alt. Az.
27 Apr 10.3 22:17:22 10° SSW 22:18:13 11° S 22:18:13 11° S visible
28 Apr 10.0 21:04:06 10° S 21:08:07 12° SSE 21:09:22 12° SSE visible
28 Apr 10.3 23:13:23 10° SW 23:14:01 11° SSW 23:14:01 11° SSW visible
29 Apr 9.7 21:58:17 10° SSW 22:05:06 19° S 22:05:06 19° S visible
30 Apr 9.8 20:43:54 10° S 20:51:18 16° SSE 20:56:06 12° SE visible
30 Apr 9.6 22:55:04 10° SW 23:00:43 21° SSW 23:00:43 21° SSW visible
01 May 9.4 21:39:28 10° SSW 21:49:05 24° SSE 21:51:36 21° SSE visible
01 May 9.9 23:52:58 10° WSW 23:56:13 17° SW 23:56:13 17° SW visible
02 May 9.9 20:24:26 10° SSW 20:34:23 21° SSE 20:41:39 10° ESE visible
02 May 9.2 22:36:47 10° SW 22:46:45 28° S 22:46:58 28° S visible
